TimeEDT,TemperatureF,Dew PointF,Humidity,Sea Level PressureIn,VisibilityMPH,Wind Direction,Wind SpeedMPH,Gust SpeedMPH,PrecipitationIn,Events,Conditions,WindDirDegrees,DateUTC
12:53 AM,64.0,55.0,73,29.99,10.0,SSE,9.2,-,N/A,,Clear,160,2013-05-01 04:53:00
1:53 AM,63.0,55.0,75,30.01,10.0,SSE,9.2,-,N/A,,Clear,160,2013-05-01 05:53:00
2:53 AM,63.0,55.0,75,30.02,10.0,South,8.1,-,N/A,,Clear,170,2013-05-01 06:53:00
3:53 AM,61.0,55.0,81,30.05,10.0,South,4.6,-,N/A,,Clear,170,2013-05-01 07:53:00
4:53 AM,60.1,54.0,80,30.06,10.0,SE,4.6,-,N/A,,Clear,140,2013-05-01 08:53:00
5:53 AM,59.0,54.0,83,30.06,10.0,South,5.8,-,N/A,,Clear,170,2013-05-01 09:53:00
6:53 AM,57.9,54.0,87,30.09,10.0,South,6.9,-,N/A,,Clear,170,2013-05-01 10:53:00
7:53 AM,61.0,54.0,78,30.11,10.0,South,8.1,-,N/A,,Clear,170,2013-05-01 11:53:00
8:53 AM,66.0,55.0,68,30.13,10.0,South,8.1,-,N/A,,Clear,180,2013-05-01 12:53:00
9:53 AM,69.1,55.9,63,30.13,10.0,SW,6.9,-,N/A,,Clear,220,2013-05-01 13:53:00
10:53 AM,73.9,55.0,52,30.13,10.0,SW,8.1,-,N/A,,Clear,220,2013-05-01 14:53:00
11:53 AM,77.0,55.0,47,30.14,10.0,SSW,9.2,-,N/A,,Clear,210,2013-05-01 15:53:00
2:53 PM,82.9,55.0,38,30.14,10.0,South,10.4,18.4,N/A,,Scattered Clouds,190,2013-05-01 18:53:00
3:53 PM,82.9,52.0,34,30.13,10.0,South,11.5,18.4,N/A,,Clear,170,2013-05-01 19:53:00
4:53 PM,82.9,51.1,33,30.14,10.0,South,10.4,20.7,N/A,,Clear,180,2013-05-01 20:53:00
5:53 PM,82.0,52.0,35,30.14,10.0,South,10.4,19.6,N/A,,Clear,180,2013-05-01 21:53:00
6:53 PM,80.1,51.1,36,30.15,10.0,South,11.5,-,N/A,,Clear,180,2013-05-01 22:53:00
7:53 PM,77.0,53.1,43,30.16,10.0,South,9.2,-,N/A,,Partly Cloudy,190,2013-05-01 23:53:00
8:53 PM,73.0,53.1,49,30.17,10.0,South,6.9,-,N/A,,Clear,170,2013-05-02 00:53:00
9:53 PM,70.0,52.0,53,30.20,10.0,Calm,Calm,-,N/A,,Clear,0,2013-05-02 01:53:00
10:53 PM,66.0,54.0,65,30.22,10.0,NW,3.5,-,N/A,,Clear,320,2013-05-02 02:53:00
11:53 PM,63.0,54.0,72,30.22,10.0,NNW,3.5,-,N/A,,Clear,340,2013-05-02 03:53:00